Location: Hemaruka
(51.7801°N, 111.0917°W)
Time: 08:19:12
(UTC+00:00)

CAS-4B - Pass Details

Date: 03 December 2023
Orbit: 485 x 503 km, 43.0° (Epoch: 24 February)

Event Time Altitude Azimuth Distance (km) Brightness Sun altitude
Rises 01:07:24 0° 242° (WSW) 2,572 ? -16.2°
Reaches altitude 10° 01:09:57 10° 227° (SW) 1,684 ? -16.6°
Maximum altitude 01:12:56 22° 176° (S) 1,122 ? -17.0°
Enters shadow 01:14:39 16° 140° (SE) 1,333 ? -17.3°
